Tracking 29892 objects as of 21-Nov-2024
HD Live streaming from Space Station
objects crossing your sky now

STARLINK-1639

Track STARLINK-1639 now!
10-day predictions
STARLINK-1639 is classified as:


NORAD ID: 46135
Int'l Code: 2020-057U
Perigee: 553.1 km
Apogee: 555.3 km
Inclination: 53.1 °
Period: 95.6 minutes
Semi major axis: 6925 km
RCS: Unknown
Launch date: August 18, 2020
Source: United States (US)
Launch site: AIR FORCE EASTERN TEST RANGE (AFETR)
Your satellite tracking list
Your tracking list is empty




NASA's NSSDC Master Catalog

Two Line Element Set (TLE):
1 46135U 20057U   24325.77333057  .00027618  00000-0  18636-2 0  9994
2 46135  53.0540 244.1090 0001584  86.1925 273.9245 15.06442452235192
Source of the keplerian elements: AFSPC